Wind_Speed
8 8 8 8 8 7 7 6 6 5 5 5 5 5 4 4 5 5 6 6 6 7 9 10 10 10 11 12 13 13 13 13 14 14 15 16 17 19
8 7 7 7 7 7 7 7 7 6 6 5 6 6 6 6 6 7 7 8 7 8 9 10 11 12 13 14 15 15 16 16 17 17 18 19 20 21
7 7 7 7 7 7 7 7 7 7 6 6 7 7 7 7 7 8 8 9 10 11 11 12 12 13 14 15 16 17 18 19 20 21 21 22 23 24
7 7 7 7 7 7 8 7 8 8 8 8 8 8 8 9 9 9 10 11 12 13 14 15 15 16 17 18 19 20 22 22 23 24 25 26 27 27
6 7 7 8 8 8 8 8 9 9 10 9 9 10 10 10 11 11 12 13 14 15 16 17 18 19 20 21 22 23 25 25 26 27 28 29 30 30
6 7 7 8 9 9 9 9 10 11 11 11 11 11 11 12 13 13 14 15 16 17 18 19 21 22 23 24 25 26 28 29 30 31 31 32 32 33
7 7 8 9 10 11 11 11 12 13 13 13 13 13 14 15 15 16 16 17 18 19 21 22 24 25 27 28 29 30 31 32 33 34 35 35 36 37
9 10 10 11 12 12 12 13 14 15 15 15 16 16 16 17 17 19 19 20 21 22 24 25 27 28 30 32 33 34 34 35 36 37 38 39 40 40
11 12 12 13 13 14 14 15 16 17 18 18 18 19 19 20 20 21 22 23 25 26 27 29 30 32 34 35 36 37 39 40 40 41 42 42 43 43
13 13 14 14 15 16 16 17 18 19 20 20 20 21 21 22 22 24 25 27 28 30 31 32 34 36 37 39 40 41 42 43 44 45 46 47 47 48
15 15 16 17 17 18 19 20 21 21 22 22 22 23 24 25 27 28 29 31 32 33 35 36 37 38 39 41 43 45 46 47 48 49 50 51 51 52
17 18 19 19 20 21 22 22 23 24 24 25 25 26 27 29 30 32 33 34 35 37 39 40 40 41 41 42 45 47 48 50 51 52 53 54 55 56
20 21 22 22 23 24 25 25 26 27 27 28 29 31 32 33 34 36 37 39 40 41 42 43 43 44 45 44 45 48 50 51 52 53 54 55 56 58
22 23 24 25 26 26 27 28 29 30 31 32 33 34 36 37 38 40 41 42 43 44 45 45 46 47 48 48 48 48 49 51 52 54 55 56 58 59
25 26 27 27 28 29 30 31 31 32 33 34 36 37 39 40 41 42 43 45 46 47 47 48 49 49 50 51 50 50 50 51 53 55 57 58 60 62
27 28 29 29 30 31 32 33 34 35 36 37 39 40 41 42 43 44 45 46 47 47 49 50 50 51 51 51 52 52 53 54 55 57 58 59 61 63
29 30 31 32 33 33 34 36 37 38 39 40 41 42 43 44 45 46 47 47 48 48 49 50 51 52 53 53 54 55 56 57 59 60 60 60 61 63
32 32 33 34 35 36 36 38 39 40 40 41 43 44 45 46 47 47 48 49 50 50 51 51 52 53 53 55 57 59 59 60 61 63 64 63 61 62
34 35 36 37 37 38 39 40 41 42 43 44 45 47 47 48 49 49 50 50 51 52 53 54 55 56 56 57 58 61 62 62 62 63 64 64 62 60
36 37 38 39 40 40 41 42 43 44 46 47 48 49 49 50 51 51 51 52 53 54 55 56 58 59 61 61 60 60 62 63 63 63 62 61 60 59
38 39 40 41 42 43 44 45 46 47 48 49 50 50 51 51 52 52 53 54 55 56 57 58 60 62 63 62 62 61 61 63 63 62 61 60 58 56
40 41 42 43 43 45 46 47 48 49 50 51 52 52 52 52 53 54 55 57 58 59 60 61 62 63 63 63 62 62 60 60 60 60 60 60 58 55
42 43 43 44 45 46 48 49 50 51 52 53 53 53 53 54 55 57 59 60 61 61 62 62 62 63 62 62 62 61 60 59 58 57 57 57 57 55
Wind_Direction
63 60 54 50 46 39 33 27 21 11 1 351 341 334 324 315 314 308 300 294 281 272 265 265 266 267 268 268 267 265 262 261 264 265 262 263 263 262
54 49 46 41 36 29 25 21 13 5 358 346 336 327 319 314 309 305 300 295 289 283 275 272 272 272 271 272 271 270 270 269 269 268 271 269 268 269
44 40 33 27 21 16 13 8 7 2 351 342 332 325 320 316 313 307 301 295 288 283 281 279 278 277 276 275 274 273 274 274 272 272 273 272 271 270
33 29 23 17 12 8 4 3 2 357 349 341 334 325 317 312 308 304 301 297 292 288 285 282 281 282 282 281 278 276 275 275 275 275 275 273 273 272
12 11 10 7 3 0 358 356 352 350 346 338 332 327 321 315 311 306 301 297 295 292 289 286 284 284 284 284 283 281 279 278 278 277 278 276 274 274
350 352 355 352 349 347 345 342 341 339 338 335 332 327 323 319 315 311 307 303 299 296 292 291 289 287 286 285 284 283 282 281 280 279 280 279 277 276
332 332 335 334 334 334 333 332 330 329 328 328 327 323 320 317 314 312 309 305 303 299 295 293 291 289 289 287 285 284 283 282 282 281 281 280 278 276
321 322 323 324 325 326 324 325 324 324 322 320 320 319 316 315 312 308 305 302 300 297 295 293 291 291 290 289 287 286 285 284 284 283 282 281 279 277
311 314 315 315 316 317 316 318 319 319 318 317 316 313 311 310 309 307 305 302 300 299 297 296 295 294 292 291 289 287 285 285 284 284 283 281 280 279
305 307 309 311 313 314 313 315 316 316 316 316 313 311 310 309 308 308 306 303 301 299 298 297 296 296 295 293 291 288 287 286 284 284 283 281 280 278
300 301 304 306 308 309 309 310 312 312 313 313 311 310 309 308 308 307 305 303 301 299 298 298 296 295 295 293 291 290 289 288 286 285 284 282 281 279
297 299 300 302 304 305 306 307 309 309 310 309 308 307 306 306 306 306 305 303 301 300 299 298 297 296 294 294 293 292 291 290 289 287 286 284 282 281
296 298 299 300 302 303 304 304 306 308 308 308 307 306 305 305 306 306 305 305 303 302 301 299 298 297 297 296 295 294 293 292 290 289 287 286 284 282
295 296 298 299 300 302 303 303 303 305 306 306 306 306 305 305 305 305 305 306 305 304 303 301 300 299 298 298 296 295 294 294 292 291 289 287 286 285
293 295 297 298 300 301 302 302 303 304 305 306 306 307 306 306 305 305 305 305 306 305 304 304 303 302 301 299 298 296 295 294 294 293 291 290 289 287
293 295 296 298 299 300 302 302 303 303 304 305 306 307 307 307 306 306 306 306 306 306 306 305 305 304 303 302 301 299 298 297 296 295 294 292 291 289
293 295 296 297 299 300 301 302 303 303 304 304 305 306 306 307 307 307 307 306 306 306 305 305 305 304 304 303 303 302 302 301 299 299 297 295 294 292
294 295 296 297 298 299 300 301 302 303 303 304 305 305 306 307 307 307 307 306 306 306 306 305 304 304 304 304 304 303 303 302 301 300 299 298 296 294
294 295 296 297 298 299 300 301 302 303 304 304 305 305 306 306 307 307 306 306 306 306 306 305 305 304 304 304 304 303 303 302 302 302 301 300 298 296
294 294 295 297 298 299 300 300 301 302 303 304 304 305 305 305 305 305 305 306 306 306 306 306 305 305 305 305 305 305 304 304 304 303 302 300 300 299
294 294 295 296 297 298 299 300 301 301 302 303 304 305 304 304 305 305 305 306 306 307 307 307 306 306 306 306 306 306 305 305 305 305 304 303 301 300
293 295 295 296 296 298 299 300 300 301 302 303 304 305 305 304 304 305 305 306 306 307 307 307 307 306 306 306 306 306 306 306 306 306 306 306 305 303
294 295 296 297 298 299 299 300 300 301 302 302 303 304 304 305 305 306 306 306 306 307 306 307 307 307 307 306 306 307 307 306 306 306 306 305 305 304
Height
5878 5878 5877 5877 5876 5875 5875 5874 5874 5873 5873 5872 5871 5870 5869 5869 5868 5868 5867 5867 5867 5867 5868 5868 5869 5869 5869 5869 5870 5870 5870 5870 5870 5870 5870 5870 5870 5871
5880 5879 5879 5878 5877 5876 5875 5874 5874 5873 5872 5871 5870 5869 5868 5867 5866 5866 5865 5864 5864 5864 5865 5865 5866 5866 5866 5866 5866 5866 5866 5866 5866 5866 5866 5865 5865 5865
5881 5881 5880 5879 5878 5877 5876 5875 5873 5872 5871 5870 5868 5867 5866 5865 5864 5863 5862 5862 5861 5861 5861 5862 5862 5862 5862 5862 5862 5862 5862 5862 5862 5862 5861 5860 5860 5860
5882 5881 5881 5880 5878 5877 5876 5875 5873 5872 5870 5869 5867 5866 5864 5863 5862 5861 5860 5859 5859 5858 5858 5858 5858 5858 5858 5858 5857 5857 5857 5856 5856 5855 5855 5854 5853 5853
5883 5882 5881 5880 5879 5877 5876 5874 5873 5871 5870 5868 5866 5864 5862 5861 5860 5859 5858 5856 5855 5855 5854 5854 5854 5854 5853 5853 5852 5851 5850 5850 5849 5848 5847 5846 5845 5845
5883 5882 5881 5880 5878 5877 5875 5874 5872 5870 5868 5866 5864 5862 5860 5859 5858 5856 5855 5853 5852 5851 5850 5850 5849 5848 5847 5847 5846 5845 5843 5842 5841 5840 5839 5838 5837 5836
5882 5881 5880 5879 5877 5876 5874 5872 5870 5868 5866 5864 5862 5860 5858 5857 5855 5853 5852 5850 5848 5847 5845 5844 5843 5842 5840 5839 5838 5836 5835 5834 5832 5831 5830 5828 5827 5825
5881 5880 5878 5877 5875 5874 5872 5870 5868 5866 5864 5862 5860 5858 5856 5853 5851 5849 5848 5846 5844 5843 5840 5838 5837 5835 5833 5831 5829 5827 5825 5824 5822 5820 5818 5817 5815 5813
5879 5877 5876 5875 5873 5871 5869 5868 5865 5863 5861 5859 5857 5854 5852 5849 5847 5845 5842 5840 5838 5836 5834 5832 5829 5827 5824 5821 5818 5816 5814 5812 5810 5808 5805 5804 5802 5800
5876 5875 5873 5872 5870 5868 5866 5864 5862 5859 5857 5854 5852 5850 5847 5844 5842 5840 5837 5834 5832 5828 5826 5824 5820 5817 5813 5809 5806 5803 5801 5798 5796 5794 5791 5789 5787 5785
5872 5871 5870 5868 5866 5864 5862 5860 5858 5855 5853 5850 5847 5844 5842 5839 5836 5833 5830 5827 5824 5820 5817 5814 5811 5807 5803 5798 5793 5789 5786 5783 5780 5778 5775 5773 5771 5769
5868 5867 5865 5864 5862 5859 5857 5855 5853 5850 5847 5845 5842 5839 5835 5832 5829 5825 5822 5818 5815 5811 5807 5803 5799 5795 5792 5788 5781 5776 5772 5768 5764 5761 5758 5755 5753 5750
5863 5862 5860 5858 5856 5854 5852 5849 5847 5844 5841 5838 5835 5831 5828 5824 5820 5816 5812 5808 5804 5799 5795 5791 5786 5782 5777 5774 5770 5763 5757 5752 5748 5744 5740 5737 5733 5730
5858 5856 5854 5852 5850 5847 5845 5842 5839 5837 5834 5830 5827 5823 5819 5815 5811 5806 5801 5796 5792 5787 5781 5777 5772 5768 5763 5758 5754 5749 5743 5737 5732 5727 5723 5719 5715 5710
5851 5850 5847 5845 5843 5840 5837 5834 5831 5828 5825 5822 5818 5813 5809 5805 5800 5795 5790 5785 5779 5773 5768 5763 5758 5752 5747 5741 5737 5732 5727 5722 5716 5711 5706 5701 5695 5690
5845 5842 5840 5838 5835 5832 5829 5826 5823 5819 5816 5812 5808 5803 5799 5794 5789 5784 5779 5773 5768 5762 5755 5749 5743 5738 5732 5726 5720 5715 5710 5704 5699 5693 5687 5682 5675 5668
5837 5835 5832 5830 5827 5824 5820 5817 5813 5809 5806 5802 5797 5793 5788 5783 5778 5772 5767 5761 5756 5750 5744 5737 5730 5724 5718 5712 5706 5700 5693 5687 5680 5673 5667 5663 5657 5648
5829 5826 5824 5821 5818 5814 5811 5807 5803 5799 5795 5791 5786 5781 5776 5771 5766 5760 5754 5748 5743 5737 5730 5724 5717 5712 5706 5699 5690 5682 5676 5669 5662 5654 5646 5641 5637 5630
5820 5817 5814 5811 5808 5804 5801 5797 5793 5788 5784 5779 5775 5769 5764 5759 5753 5747 5741 5735 5729 5723 5716 5709 5702 5695 5690 5685 5678 5666 5657 5650 5643 5636 5628 5620 5614 5609
5810 5807 5804 5801 5797 5794 5790 5786 5781 5777 5772 5768 5762 5757 5751 5746 5740 5734 5728 5722 5715 5709 5702 5694 5686 5678 5671 5666 5660 5653 5640 5630 5623 5616 5609 5602 5595 5589
5800 5797 5793 5790 5786 5782 5778 5774 5770 5765 5760 5755 5750 5744 5738 5732 5726 5720 5714 5707 5700 5694 5687 5679 5670 5662 5654 5646 5641 5635 5626 5614 5604 5596 5589 5582 5577 5572
5789 5786 5782 5778 5775 5771 5766 5762 5757 5752 5747 5742 5736 5730 5724 5718 5712 5706 5699 5692 5685 5678 5671 5663 5654 5645 5637 5629 5621 5615 5609 5600 5590 5580 5570 5561 5554 5550
5777 5774 5770 5766 5762 5758 5754 5749 5744 5739 5734 5728 5723 5717 5710 5704 5698 5691 5684 5676 5669 5661 5653 5646 5638 5629 5620 5612 5604 5597 5590 5583 5575 5568 5560 5548 5540 5532